Location: Haram ta Haram Freeway
(35.0583°N, 51.4202°E)
Time: 07:43:37
(UTC+03:30)

Tiangong - Pass Details

Date: 07 October 2022
Orbit: 386 x 393 km, 41.5° (Epoch: 28 November)

Event Time Altitude Azimuth Distance (km) Brightness Sun altitude
Rises 18:19:43 0° 221° (SW) 2,270 2.5 -8.9°
Reaches altitude 10° 18:21:55 10° 211° (SSW) 1,421 1.2 -9.3°
Maximum altitude 18:24:48 31° 147° (SSE) 718 -1.1 -9.9°
Enters shadow 18:26:52 16° 91° (E) 1,136 -0.4 -10.3°
